(345897) = 2007 RM96

Discovered at Kitt Peak on 2007-09-10 by Spacewatch.

Orbit

Orbit type: Main Belt

Note: WebGL enabled browser required.

epoch2024-03-31.0
epoch JD2460400.5
perihelion date2021-12-24.90740
perihelion JD2459573.40740
argument of perihelion (°)328.07736
ascending node (°)87.72735
inclination (°)3.58034
eccentricity0.1073100
perihelion distance (AU)2.4724048
Tisserand w.r.t. Jupiter3.3
ΔV w.r.t. Earth (km/sec)9.9
semimajor axis (AU)2.7696118
mean anomaly (°)176.86000
mean daily motion (°/day)0.21383340
aphelion distance (AU)3.067
period (years)4.61
P-vector [x]0.56098408
P-vector [y]0.77204654
P-vector [z]0.29873233
Q-vector [x]-0.82547152
Q-vector [y]0.49449506
Q-vector [z]0.27216062
absolute magnitude17.13
phase slope0.15
uncertainty0
referenceMPEC 2024-C107
observations used218
oppositions11
arc length (days)5676
first opposition used2007
last opposition used2023
residual rms (arc-secs)0.78
perturbers coarse indicatorM-v
perturbers precise indicator003Ek
first observation date used2007-09-10.0
last observation date used2023-03-26.0
computer nameMPCLINUX
JD of orbit computation2456760.675033
perihelion JD uncertainty (days)1.5303E-04
argument of perihelion uncertainty (°)1.0763E-04
ascending node uncertainty (°)1.0239E-04
inclination uncertainty (°)4.4024E-06
eccentricity uncertainty 4.9094E-08
perihelion distance uncertainty (AU)1.3198E-07
Minimum Orbit Intersection Distances (in AU)
for orbit epoch: 2460200.5, reference: E2024-CA7
Mercury2.1589
Venus1.75009
Earth1.48379
Mars0.94328
Jupiter2.23829
Saturn6.49703
Uranus15.5499
Neptune27.3017

Observations

223 total observations over interval: 2007 09 10.44403 – 2023 03 26.243086
These data are available for download (format description).

Date (UT) J2000 RA J2000 Dec Magn Location Ref
2007 09 10.44403 01 38 32.54 +04 31 16.8 20.3 V 691 – Steward Observatory, Kitt Peak-Spacewatch MPS 216428
2007 09 10.46161 01 38 32.16 +04 31 13.3 20.4 V 691 – Steward Observatory, Kitt Peak-Spacewatch MPS 216428
2007 09 10.49185 01 38 31.55 +04 31 08.2 20.9 V 691 – Steward Observatory, Kitt Peak-Spacewatch MPS 216428
2007 09 11.46273 01 38 12.26 +04 28 03.9 21.2 V 691 – Steward Observatory, Kitt Peak-Spacewatch MPS 216428
2007 09 11.48031 01 38 11.87 +04 28 00.6 21.0 V 691 – Steward Observatory, Kitt Peak-Spacewatch MPS 216428
2007 09 11.50136 01 38 11.39 +04 27 56.4 21.3 V 691 – Steward Observatory, Kitt Peak-Spacewatch MPS 216428
2007 09 18.42421 01 35 12.81 +04 03 06.3 20.5 V 691 – Steward Observatory, Kitt Peak-Spacewatch MPS 217782
2007 09 18.43931 01 35 12.32 +04 03 02.3 20.5 V 691 – Steward Observatory, Kitt Peak-Spacewatch MPS 217782
2007 09 18.45442 01 35 11.84 +04 02 58.9 20.8 V 691 – Steward Observatory, Kitt Peak-Spacewatch MPS 217782
2007 09 20.46717 01 34 07.16 +03 54 54.4 20.6 V 691 – Steward Observatory, Kitt Peak-Spacewatch MPS 217782
2007 09 20.48476 01 34 06.54 +03 54 49.7 20.5 V 691 – Steward Observatory, Kitt Peak-Spacewatch MPS 217782
2007 09 20.50236 01 34 05.95 +03 54 44.8 20.6 V 691 – Steward Observatory, Kitt Peak-Spacewatch MPS 217782
2007 10 13.26918 01 17 15.39 +02 10 59.8 19.9 V G96 – Mt. Lemmon Survey MPS 220645
2007 10 13.27577 01 17 15.07 +02 10 58.0 20.0 V G96 – Mt. Lemmon Survey MPS 220645
2007 10 13.28236 01 17 14.74 +02 10 56.2 19.9 V G96 – Mt. Lemmon Survey MPS 220645
2007 10 13.28887 01 17 14.35 +02 10 56.1 20.7 V G96 – Mt. Lemmon Survey MPS 220645
2007 10 15.28593 01 15 33.12 +02 02 04.2 19.9 V G96 – Mt. Lemmon Survey MPS 220645
2007 10 15.29499 01 15 32.58 +02 02 01.9 20.0 V G96 – Mt. Lemmon Survey MPS 220645
2007 10 15.30398 01 15 32.18 +02 01 59.9 20.2 V G96 – Mt. Lemmon Survey MPS 220645
2007 10 15.31298 01 15 31.68 +02 01 57.3 20.4 V G96 – Mt. Lemmon Survey MPS 220645
2007 11 05.07356 00 59 50.85 +00 55 09.9 20.7 V 691 – Steward Observatory, Kitt Peak-Spacewatch MPS 224958
2007 11 05.09635 00 59 49.97 +00 55 07.2 21.0 V 691 – Steward Observatory, Kitt Peak-Spacewatch MPS 224958
2007 11 05.11913 00 59 49.11 +00 55 05.0 20.5 V 691 – Steward Observatory, Kitt Peak-Spacewatch MPS 224958
2009 01 16.36384 10 06 14.15 +15 58 40.1 20.6 V 691 – Steward Observatory, Kitt Peak-Spacewatch MPS 276535
2009 01 16.38212 10 06 13.51 +15 58 45.1 20.7 V 691 – Steward Observatory, Kitt Peak-Spacewatch MPS 276535
2009 01 16.40049 10 06 12.89 +15 58 51.1 20.6 V 691 – Steward Observatory, Kitt Peak-Spacewatch MPS 276535
2009 01 30.30385 09 56 42.31 +17 12 11.5 20.6 V 691 – Steward Observatory, Kitt Peak-Spacewatch MPS 276535
2009 01 30.32148 09 56 41.44 +17 12 17.5 20.8 V 691 – Steward Observatory, Kitt Peak-Spacewatch MPS 276535
2009 01 30.33911 09 56 40.52 +17 12 22.9 20.4 V 691 – Steward Observatory, Kitt Peak-Spacewatch MPS 276535
2009 01 31.29880 09 55 53.73 +17 17 45.4 20.6 V 691 – Steward Observatory, Kitt Peak-Spacewatch MPS 276535
2009 01 31.31715 09 55 52.79 +17 17 51.6 20.5 V 691 – Steward Observatory, Kitt Peak-Spacewatch MPS 276535
2009 01 31.33287 09 55 52.01 +17 17 57.0 20.2 V 691 – Steward Observatory, Kitt Peak-Spacewatch MPS 276535
2009 02 03.28532 09 53 23.55 +17 34 29.1 20.8 V 691 – Steward Observatory, Kitt Peak-Spacewatch MPS 276535
2009 02 03.30370 09 53 22.58 +17 34 34.7 20.4 V 691 – Steward Observatory, Kitt Peak-Spacewatch MPS 276535
2009 02 03.32183 09 53 21.61 +17 34 40.7 20.6 V 691 – Steward Observatory, Kitt Peak-Spacewatch MPS 276535
2009 02 05.29482 09 51 39.48 +17 45 39.9 20.6 V 691 – Steward Observatory, Kitt Peak-Spacewatch MPS 276535
2009 02 05.31322 09 51 38.48 +17 45 46.3 20.6 V 691 – Steward Observatory, Kitt Peak-Spacewatch MPS 276535
2009 02 05.33136 09 51 37.44 +17 45 51.7 20.3 V 691 – Steward Observatory, Kitt Peak-Spacewatch MPS 276535
2010 05 08.26531 15 10 02.53 -14 12 58.7 20.0 V G96 – Mt. Lemmon Survey MPS 326371
2010 05 08.27422 15 10 02.13 -14 12 56.1 20.7 V G96 – Mt. Lemmon Survey MPS 326371
2010 05 08.28317 15 10 01.63 -14 12 54.7 21.0 V G96 – Mt. Lemmon Survey MPS 326371
2010 05 08.29218 15 10 01.12 -14 12 53.0 20.8 V G96 – Mt. Lemmon Survey MPS 326371
2011 07 26.44083 21 05 45.550 -20 29 34.78 21.1 w F51 – Pan-STARRS 1, Haleakala MPS 387233
2011 07 26.45456 21 05 44.855 -20 29 38.70 21.0 w F51 – Pan-STARRS 1, Haleakala MPS 387233
2011 07 26.46832 21 05 44.129 -20 29 42.64 21.0 w F51 – Pan-STARRS 1, Haleakala MPS 387233
2011 07 26.48210 21 05 43.430 -20 29 46.54 21.0 w F51 – Pan-STARRS 1, Haleakala MPS 387233
2012 11 06.32427 05 01 25.38 +20 27 41.2 21.2 V 691 – Steward Observatory, Kitt Peak-Spacewatch MPS 439524
2012 11 06.34198 05 01 24.78 +20 27 41.8 21.2 V 691 – Steward Observatory, Kitt Peak-Spacewatch MPS 439524
2012 11 06.35968 05 01 24.10 +20 27 41.9 21.6 V 691 – Steward Observatory, Kitt Peak-Spacewatch MPS 439524
2012 11 25.35363 04 46 26.974 +20 25 58.76 20.1 i F51 – Pan-STARRS 1, Haleakala MPS 443407
2012 11 25.36558 04 46 26.268 +20 25 59.04 20.2 i F51 – Pan-STARRS 1, Haleakala MPS 443407
2012 12 11.83976 04 30 27.05 +20 21 23.8 20.7 R G36 – Calar Alto-CASADO MPS 448500
2012 12 11.91555 04 30 22.68 +20 21 23.3 20.9 R G36 – Calar Alto-CASADO MPS 448500
2012 12 12.03709 04 30 15.63 +20 21 21.0 20.7 R G36 – Calar Alto-CASADO MPS 448500
2012 12 12.79914 04 29 33.89 +20 21 10.7 21.0 R G36 – Calar Alto-CASADO MPS 448500
2012 12 12.93021 04 29 26.42 +20 21 09.7 20.7 R G36 – Calar Alto-CASADO MPS 448500
2012 12 12.96186 04 29 24.61 +20 21 09.4 20.5 R G36 – Calar Alto-CASADO MPS 448500
2012 12 13.81433 04 28 38.30 +20 20 58.8 20.7 R G36 – Calar Alto-CASADO MPS 448500
2012 12 13.92548 04 28 32.08 +20 20 58.1 20.5 R G36 – Calar Alto-CASADO MPS 448500
2012 12 13.97792 04 28 29.14 +20 20 57.4 20.8 R G36 – Calar Alto-CASADO MPS 448500
2014 02 26.56391 12 25 05.836 +02 59 40.75 21.4 w F51 – Pan-STARRS 1, Haleakala MPS 503921
2014 02 26.57614 12 25 05.374 +02 59 44.25 21.4 w F51 – Pan-STARRS 1, Haleakala MPS 503921
2014 02 26.58840 12 25 04.923 +02 59 48.09 21.2 w F51 – Pan-STARRS 1, Haleakala MPS 503921
2014 02 26.60063 12 25 04.471 +02 59 51.72 21.2 w F51 – Pan-STARRS 1, Haleakala MPS 503921
2014 02 27.48727 12 24 32.565 +03 04 18.15 21.3 w F51 – Pan-STARRS 1, Haleakala MPS 503921
2014 02 27.49953 12 24 32.106 +03 04 21.89 21.3 w F51 – Pan-STARRS 1, Haleakala MPS 503921
2014 02 27.51185 12 24 31.628 +03 04 25.63 21.4 w F51 – Pan-STARRS 1, Haleakala MPS 503921
2014 02 27.52419 12 24 31.146 +03 04 29.33 21.1 w F51 – Pan-STARRS 1, Haleakala MPS 503921
2014 03 20.22839 12 09 03.80 +04 56 30.2 20.9 V G96 – Mt. Lemmon Survey MPS 508451
2014 03 20.23619 12 09 03.45 +04 56 32.7 20.4 V G96 – Mt. Lemmon Survey MPS 508451
2014 03 20.24399 12 09 03.08 +04 56 35.1 20.6 V G96 – Mt. Lemmon Survey MPS 508451
2014 03 20.25180 12 09 02.64 +04 56 37.2 20.1 V G96 – Mt. Lemmon Survey MPS 508451
2016 08 08.56152 00 05 20.939 -04 58 02.53 21.0 w F51 – Pan-STARRS 1, Haleakala MPS 724881
2016 08 08.57207 00 05 20.816 -04 58 04.47 21.2 w F51 – Pan-STARRS 1, Haleakala MPS 724881
2016 08 08.58261 00 05 20.697 -04 58 06.23 21.1 w F51 – Pan-STARRS 1, Haleakala MPS 724881
2016 08 08.59326 00 05 20.578 -04 58 08.34 21.6 w F51 – Pan-STARRS 1, Haleakala MPS 724881
2016 09 09.36311 23 49 07.44 -07 29 08.2 20.4 V G96 – Mt. Lemmon Survey MPS 729763
2016 09 09.36775 23 49 07.23 -07 29 09.9 20.6 V G96 – Mt. Lemmon Survey MPS 729763
2016 09 09.37246 23 49 07.00 -07 29 11.4 20.6 V G96 – Mt. Lemmon Survey MPS 729763
2016 09 09.37714 23 49 06.77 -07 29 13.4 20.6 V G96 – Mt. Lemmon Survey MPS 729763
2016 09 25.36256 23 36 12.87 -08 53 09.9 20.4 V G96 – Mt. Lemmon Survey MPS 732143
2016 09 25.36691 23 36 12.64 -08 53 11.8 20.5 V G96 – Mt. Lemmon Survey MPS 732143
2016 09 25.37122 23 36 12.49 -08 53 11.6 19.5 V G96 – Mt. Lemmon Survey MPS 732143
2016 09 25.37559 23 36 12.25 -08 53 13.7 20.9 V G96 – Mt. Lemmon Survey MPS 732143
2017 12 12.48367 08 38 47.551 +20 31 15.86 21.5 w F51 – Pan-STARRS 1, Haleakala MPS 848845
2017 12 12.49579 08 38 47.377 +20 31 17.89 21.6 w F51 – Pan-STARRS 1, Haleakala MPS 848845
2017 12 23.58138 08 34 43.168 +21 07 13.42 21.0 w F51 – Pan-STARRS 1, Haleakala MPS 853934
